TIME,DELAY(SENSOR),PRES,OXYGEN,RAWTEMP,T(OPTODE),TCPHASE,FLUOR,BETA(BETA700),BETA(BETA412),BETA(BETA440),CDOM,C(CSC),ED(ED412.40),ED(ED444.00),ED(ED489.70),ED(ED554.30),LU(LU411.80),LU(LU443.40),LU(LU489.60),LU(LU554.10),COMP,TILTX,TILTY,CHECK
1347421827,5812,862.6099853515625000,46.8739204406738300,663.8129272460938000,4.5023651123046875,54.0289497375488300,53,100,88,78,81,15301,2147761965,2147423222,2148006500,2147872594,2147642102,2147060315,2148254674,2147201536,977,5,13,56348
1347425423,5809,933.8499755859375000,48.6399803161621100,671.4323120117188000,4.2508740425109860,53.8805809020996100,54,98,91,78,81,15299,2147763401,2147418569,2148009097,2147874294,2147641563,2147061787,2148262674,2147198217,3368,4,13,61542
1347429023,5807,949.4299926757812000,48.8783988952636700,672.2595825195312000,4.2235260009765625,53.8516807556152340,52,99,89,78,81,15292,2147761700,2147420516,2148008777,2147874368,2147646098,2147055945,2148259181,2147198445,3437,4,13,24953
1347432623,5810,986.9799804687500000,50.2952003479003900,676.4558715820312000,4.0846982002258300,53.7097282409668000,52,98,85,78,81,15292,2147759716,2147418322,2148008384,2147874898,2147642212,2147059483,2148263030,2147195163,3068,4,13,22697
1347436223,5813,990.7199707031250000,49.9703598022460940,676.0009765625000000,4.0997557640075680,53.7518386840820300,53,97,89,79,81,15292,2147763218,2147423222,2148006418,2147873069,2147644955,2147057462,2148258377,2147196745,3291,5,13,51210
1347439823,5808,984.6900024414062000,50.0709190368652340,677.2067260742188000,4.0598368644714355,53.7496299743652340,53,98,88,80,82,15289,2147765028,2147420114,2148007899,2147872996,2147642532,2147064521,2148264822,2147194194,3466,4,13,6135
1347443423,5808,983.4000244140625000,50.8709793090820300,678.8369140625000000,4.0058379173278810,53.6598701477050800,52,99,88,79,81,15292,2147758262,2147420690,2148007762,2147870363,2147647030,2147060214,2148263634,2147197814,3390,4,13,17562
1347447023,5807,992.0200195312500000,50.7295608520507800,679.1320190429688000,3.9960579872131348,53.6861000061035160,53,97,86,78,81,15291,2147763373,2147420864,2148007195,2147874304,2147644443,2147063213,2148258614,2147198052,3125,5,13,39698
1347450623,5811,989.3800048828125000,50.5349197387695300,679.6683959960938000,3.9782810211181640,53.7204284667968750,53,102,85,78,82,15291,2147762285,2147421558,2148008036,2147874230,2147645869,2147061312,2148263524,2147197979,39,5,13,35704
1347454223,5810,991.4600219726562000,50.3353805541992200,679.6348876953125000,3.9793910980224610,53.7463188171386700,52,110,87,80,82,15291,2147762788,2147419721,2148006336,2147872521,2147645942,2147064722,2148262153,2147197440,213,5,13,60062
1347457823,5755,991.3099975585938000,50.0551910400390600,679.6491088867188000,3.9789199829101562,53.7813682556152340,53,99,87,78,81,15284,2147759040,2147416704,2148009115,2147873874,2147645485,2147059465,2148261412,2147196909,382,5,13,4863
1347461423,5807,1002.4899902343750000,50.7395782470703100,679.5596923828125000,3.9818840026855470,53.6888618469238300,53,100,88,79,82,15292,2147760018,2147418624,2148008429,2147874121,2147641435,2147060699,2148261449,2147197010,3513,4,14,40392
1347465023,5805,1012.5999755859375000,49.7740516662597660,677.3886108398438000,4.0538139343261720,53.7928199768066400,52,99,88,78,82,15283,2147759698,2147421805,2148009536,2147874221,2147643894,2147054701,2148264091,2147196781,572,4,13,52645
1347468623,5806,1012.7100219726562000,49.5497093200683600,676.7849731445312000,4.0738010406494140,53.8166999816894500,52,101,85,80,82,15286,2147764342,2147417005,2148007195,2147870912,2147643666,2147065545,2148257773,2147193088,642,5,13,22290
1347472223,5806,998.2299804687500000,49.2543792724609400,677.0051269531250000,4.0665149688720700,53.8602409362793000,51,100,88,79,82,15279,2147759771,2147422765,2148007314,2147874148,2147646025,2147060891,2148259702,2147193709,834,4,13,52718
1347475823,5806,995.3499755859375000,50.4540786743164060,678.4470214843750000,4.0187530517578125,53.7147483825683600,53,101,87,79,82,15280,2147761444,2147419702,2148008658,2147873993,2147643730,2147067648,2148259794,2147198034,598,5,13,57222
1347479423,5807,992.8200073242188000,50.2421798706054700,677.9647827148438000,4.0347270965576170,53.7354011535644500,53,100,88,78,82,15280,2147762733,2147418825,2148007241,2147872438,2147642276,2147056594,2148261851,2147197741,293,5,13,44077
1347483023,5809,988.3099975585938000,50.5811805725097660,679.0817871093750000,3.9977190494537354,53.7066192626953100,52,100,86,80,81,15280,2147763355,2147420745,2148008045,2147873737,2147643382,2147058916,2148264594,2147198573,880,5,13,50161
1347486623,5807,991.3300170898438000,50.6216888427734400,680.3585205078125000,3.9554040431976320,53.7141609191894500,52,100,89,79,81,15277,2147763254,2147418294,2148010614,2147872283,2147642349,2147057883,2148259757,2147200393,354,4,13,52757
1347490223,5812,996.9400024414062000,50.9586791992187500,679.5899047851562000,3.9808828830718994,53.6636390686035160,53,99,87,79,81,15280,2147762642,2147421888,2148009298,2147874889,2147645101,2147061942,2148264192,2147196827,226,5,13,53701
1347493823,5805,1000.0300292968750000,50.7593612670898440,679.0582275390625000,3.9985051155090330,53.6845092773437500,53,98,89,78,81,15280,2147762102,2147420699,2148007222,2147875081,2147643858,2147061458,2148258898,2147197650,3596,4,13,40694
1347497423,5810,994.7299804687500000,50.5085105895996100,679.2725830078125000,3.9913959503173830,53.7207298278808600,52,101,89,78,82,15277,2147760402,2147421540,2148010587,2147874934,2147643209,2147058742,2148257536,2147197129,669,5,13,33510
1347501023,5811,999.2000122070312000,50.8486099243164060,679.2587280273438000,3.9918589591979980,53.6700592041015600,53,99,86,80,82,15279,2147758939,2147420041,2148009618,2147872393,2147641545,2147059501,2148257590,2147200246,387,5,13,60115
1347504623,5810,997.9400024414062000,50.7630691528320300,679.5333862304688000,3.9827539920806885,53.6838798522949200,52,98,89,80,82,15278,2147759597,2147421796,2148007424,2147874212,2147645129,2147061028,2148259885,2147197723,3590,4,13,25023
1347508223,5808,1006.3400268554688000,50.7391090393066400,679.0142822265625000,3.9999599456787110,53.6798706054687500,53,99,87,79,81,15276,2147761801,2147419794,2148012443,2147874267,2147645906,2147061668,2148264429,2147198290,461,4,13,9975
1347511823,5808,1018.2899780273438000,50.6234588623046900,678.2225952148438000,4.0261878967285160,53.6898612976074200,52,100,93,81,82,15273,2147758884,2147422034,2148009581,2147871945,2147643382,2147058203,2148261037,2147200667,39,5,13,65503
1347515423,5810,1008.8300170898438000,49.0776214599609400,677.6921997070312000,4.0437579154968260,53.8947792053222660,53,99,85,80,80,15273,2147761618,2147421549,2148010066,2147872539,2147642998,2147057636,2148255149,2147197494,110,5,13,20427
1347519023,5808,1004.5300292968750000,49.5176582336425800,678.0889282226562000,4.0306172370910645,53.8381004333496100,53,99,87,79,81,15272,2147763465,2147420059,2148009508,2147873289,2147646290,2147062802,2148258212,2147194998,480,5,13,4445
1347522623,5810,1006.1500244140625000,50.1486206054687500,679.0140991210938000,3.9999659061431885,53.7635116577148440,52,99,89,79,82,15273,2147763419,2147421165,2148010651,2147871643,2147644507,2147064731,2148257563,2147196434,21,5,13,55108
1347526223,5810,999.6699829101562000,50.1857299804687500,679.1500244140625000,3.9954609870910645,53.7599411010742200,53,97,82,80,80,15273,2147762157,2147420662,2148011273,2147872868,2147643117,2147060123,2148255579,2147196754,3513,4,13,5058
1347529823,5809,996.1900024414062000,50.2770004272460940,679.6688232421875000,3.9782700538635254,53.7569313049316400,52,98,86,79,81,15274,2147762066,2147420324,2148007762,2147873179,2147640237,2147060982,2148263204,2147196086,505,4,13,23586
1347533423,5809,1000.6699829101562000,50.6644210815429700,679.9304199218750000,3.9695971012115480,53.7024192810058600,53,98,87,79,82,15270,2147756571,2147418349,2148009417,2147873453,2147641088,2147059776,2148262985,2147198208,3000,5,13,32002
1347537023,5809,1008.1799926757812000,50.2821006774902340,679.3483886718750000,3.9888839721679688,53.7477989196777340,52,98,90,77,82,15271,2147760475,2147419062,2148008000,2147874130,2147643209,2147060937,2148261961,2147195666,242,5,13,27514
1347540623,5809,1003.6799926757812000,49.9083213806152340,679.2277221679688000,3.9928860664367676,53.7981605529785160,52,97,89,79,81,15272,2147761042,2147419446,2148007570,2147872182,2147643474,2147062354,2148257929,2147198921,235,5,13,55269
1347544223,5810,1012.0100097656250000,50.1865310668945300,679.1677856445312000,3.9948709011077880,53.7604484558105500,52,99,89,79,81,15271,2147761188,2147418057,2148007570,2147876361,2147643410,2147059757,2148261595,2147197677,259,5,13,57636
1347547823,5813,1012.1799926757812000,50.3134613037109400,678.0341796875000000,4.0324292182922360,53.7249908447265600,52,100,93,79,82,15269,2147762313,2147421001,2148007872,2147874368,2147644352,2147061357,2148261476,2147200969,93,5,13,58520
1347551423,5810,1017.5399780273438000,50.4017410278320300,678.1295776367188000,4.0292701721191410,53.7177505493164060,53,99,91,78,81,15270,2147758665,2147421869,2148008347,2147875529,2147643629,2147063131,2148257764,2147197568,3160,5,13,37897
1347555023,5813,1005.0900268554688000,49.3712387084960940,678.0618286132812000,4.0315170288085940,53.8611183166503900,52,100,89,78,81,15270,2147759433,2147419300,2148008283,2147874267,2147643648,2147058816,2148262701,2147197604,50,5,13,54903
1347558623,5808,1009.1599731445312000,50.2449989318847660,679.1973266601562000,3.9938929080963135,53.7542800903320300,53,98,88,78,82,15271,2147761005,2147418422,2148007670,2147873874,2147644425,2147064274,2148258688,2147199725,3091,4,13,40224
1347562223,5807,1009.1900024414062000,50.1200790405273440,678.1934814453125000,4.0271530151367190,53.7535591125488300,52,97,87,78,82,15268,2147757760,2147423387,2148006290,2147875328,2147645129,2147058486,2148257453,2147197485,153,4,13,55808
1347565855,5810,1009.5700073242188000,49.6981315612793000,678.6157836914062000,4.0131630897521970,53.8172607421875000,53,115,88,79,81,15285,2147758665,2147421083,2148014811,2147872338,2147644269,2147057865,2148259492,2147197129,3106,5,13,3804
